Location: Normandy Village
(37.8755°N, 122.2655°W)
Time: 13:52:58
(UTC+00:00)

MSX - Pass Details

Date: 22 September 2019
Orbit: 894 x 907 km, 98.7° (Epoch: 20 October)

Event Time Altitude Azimuth Distance (km) Brightness Sun altitude
Rises 12:24:17 0° 11° (N) 3,525 7.3 -18.8°
Reaches altitude 10° 12:26:42 10° 10° (N) 2,579 6.5 -18.4°
Maximum altitude 12:32:26 78° 286° (WNW) 919 3.7 -17.3°
Drops below altitude 10° 12:38:08 10° 200° (SSW) 2,557 5.9 -16.2°
Enters shadow 12:40:15 - 199° (SSW) 3,388 6.5 -15.8°
